Skip Page Navigation
NASA JPL Caltech
NASA Logo - Jet Propulsion Laboratory + View the NASA Portal
+ Center for Near-Earth Object Studies
JPL Home Earth Solar System Stars & Galaxies Technology
JPL Solar System Dynamics
BODIES ORBITS EPHEMERIDES TOOLS PHYSICAL DATA DISCOVERY FAQ SITE MAP
JPL Small-Body Database Browser
Search: [ help ]  
31098 Frankhill (1997 LQ2)
Classification: Mars-crossing Asteroid          SPK-ID: 2031098
Ephemeris | Orbit Diagram | Orbital Elements | Mission Design | Physical Parameters | Discovery Circumstances ]

[ show orbit diagram ]
Orbital Elements at Epoch 2459200.5 (2020-Dec-17.0) TDB
Reference: JPL 20 (heliocentric ecliptic J2000)
 Element Value Uncertainty (1-sigma)   Units 
e .2824200991861703 4.0299e-08  
a 2.292777816890847 8.3629e-09 au
q 1.645251278432683 9.1264e-08 au
i 22.53169840694498 6.121e-06 deg
node 249.057360964971 1.2573e-05 deg
peri 89.80273959973367 1.6771e-05 deg
M 222.5603768478513 1.082e-05 deg
tp 2459684.617563156889
(2022-Apr-15.11756316)
3.8953e-05 TDB
period 1268.064614405597
3.47
6.9379e-06
1.899e-08
d
yr
n .2838972051662758 1.5533e-09 deg/d
Q 2.940304355349011 1.0725e-08 au
  Orbit Determination Parameters
   # obs. used (total)      899  
   data-arc span      8671 days (23.74 yr)  
   first obs. used      1997-06-09  
   last obs. used      2021-03-06  
   planetary ephem.      DE441  
   SB-pert. ephem.      SB441-N16  
   condition code      0  
   norm. resid. RMS      .48048  
   source      ORB  
   producer      Otto Matic  
   solution date      2021-Apr-13 06:45:13  

Additional Information
 Earth MOID = .807377 au 
 Jupiter MOID = 2.78094 au 
 T_jup = 3.446 
[ show covariance matrix ]

Ephemeris | Orbit Diagram | Orbital Elements | Mission Design | Physical Parameters | Discovery Circumstances ]

Physical Parameter Table
Parameter Symbol Value Units Sigma Reference Notes
absolute magnitude H 14.65   n/a E2021B10  
diameter diameter 2.809 km 0.566 urn:nasa:pds:neowise_diameters_albedos::2.0[mainbelt] (http://adsabs.harvard.edu/abs/2016AJ....152...63N)  
rotation period rot_per 50.04 h n/a LCDB (Rev. 2020-October); Warner et al., 2009 Result based on less than full coverage, so that the period may be wrong by 30 percent or so.
Published Reference List:
[Stephens, R.D.; Warner, B.D. (2019) Minor Planet Bull. 45, 66-71.]
geometric albedo albedo 0.309   0.103 urn:nasa:pds:neowise_diameters_albedos::2.0[mainbelt] (http://adsabs.harvard.edu/abs/2016AJ....152...63N)  

31098 Frankhill           Discovered 1997 June 9 by R. Tucker at Goodricke-Pigott Observatory.
Frank Hill (b. 1951) is a U.S. astronomer, inventor of a method for probing beneath the solar surface, an expert on selection of observatory sites, and Data Scientist for the worldwide GONG network of helioseismic telescopes and the National Solar Observatory digital data archive.
NOTE: some special characters may not display properly (any characters within {} are an attempt to place the proper accent above a character)
Reference: 20030806/MPCPages.arcLast Updated: 2003-10-02
Ephemeris | Orbit Diagram | Orbital Elements | Mission Design | Physical Parameters | Discovery Circumstances ]
ABOUT SSD CREDITS/AWARDS PRIVACY/COPYRIGHT GLOSSARY LINKS
FirstGov 2021-Apr-23 09:51 UT
(server date/time)  
NASA Home Page
Site Manager:   Ryan S. Park
Webmaster  Alan B. Chamberlin